Location: Lussas
(44.6119°N, 4.4726°E)
Time: 20:17:33
(UTC+00:00)

Cosmos 1743 Rocket - Pass Details

Date: 26 November 2020
Orbit: 603 x 633 km, 82.6° (Epoch: 27 January)

Event Time Altitude Azimuth Distance (km) Brightness Sun altitude
Rises 05:39:12 0° 188° (S) 2,890 7.1 -12.9°
Reaches altitude 10° 05:41:24 10° 189° (S) 1,993 6.3 -12.6°
Maximum altitude 05:45:49 85° 275° (W) 638 3.5 -11.8°
Drops below altitude 10° 05:50:20 10° 7° (N) 2,023 6.1 -11.1°
Sets 05:52:35 0° 9° (N) 2,938 6.9 -10.7°
